Regional Weather Roundup
Issued by NWS Charleston, SC

Current Version | Previous Version | Graphics & Text | Print | Product List | Glossary On
Versions: 1 2 3 4 5 6 7 8 9 10 11 12 13 14 15 16 17 18 19 20 21 22 23 24 25 26 27 28 29 30 31 32 33 34 35 36 37 38 39 40 41 42 43 44 45 46 47 48 49 50
000
ASUS42 KCHS 250212
RWRCHS

REGIONAL WEATHER ROUNDUP
NATIONAL WEATHER SERVICE CHARLESTON SC
1000 PM EDT WED MAY 24 2017

NOTE: "FAIR" INDICATES FEW OR NO CLOUDS BELOW 12,000 FEET WITH NO
SIGNIFICANT WEATHER AND/OR OBSTRUCTIONS TO VISIBILITY.

NOT ALL STATIONS ARE QUALITY CONTROLLED. USE DATA WITH CAUTION...
ESPECIALLY DEWPOINT OBSERVATIONS.

SCZ027-030-031-034>040-042>050-250300-
...SOUTHEAST SOUTH CAROLINA...

CITY           SKY/WX    TMP DP  RH WIND       PRES   REMARKS
N CHARLESTON   CLOUDY    74  67  78 S13       29.56S
WATERFRONT PRK   N/A     76  71  84 S8G15     29.54R
JOHNS ISLAND   MOCLDY    77  70  78 SW8       29.56F
PINOPOLIS        N/A     73  70  88 VRB3      29.47S
MONCKS CORNER  MOCLDY    72  68  88 S7        29.55S
SUMMERVILLE    CLOUDY    72  68  88 S5        29.54F
BEAUFORT MCAS  CLOUDY    73  71  93 SW9       29.54S
BEAUFORT ARPT  MOCLDY    73  66  78 SW12      29.54S
HILTON HEAD IS CLOUDY    73  64  73 SW14G21   29.57R
WALTERBORO     LGT RAIN  66  64  94 SE5       29.55F
ALLENDALE      FAIR      66  64  94 CALM      29.52S

...SOUTHERN MIDLANDS AND PEE DEE...

CITY           SKY/WX    TMP DP  RH WIND       PRES   REMARKS
GEORGETOWN     CLOUDY    72  70  94 S14       29.59R
KINGSTREE      CLOUDY    70  66  88 SE6       29.54S
ORANGEBURG     LGT RAIN  67  65  93 S7        29.53F
BARNWELL       FAIR      66  64  94 CALM      29.53S
AIKEN          FAIR      64  61  88 S9        29.55R
MANNING        DRIZZLE   72  70  94 SW22G30   29.53F
COLUMBIA       CLOUDY    70  66  87 S7        29.51R
SUMTER         LGT RAIN  69  66  91 S8        29.50S
FLORENCE       CLOUDY    70  69  97 S9        29.54S
MYRTLE BEACH   CLOUDY    73  70  88 S17G23    29.58F
N MYRTLE BEACH CLOUDY    74  71  91 S16G24    29.59S

$$

GAZ063-065-086>088-099>101-113>116-118-119-134>141-150-250300-
...SOUTHEAST GEORGIA...

CITY           SKY/WX    TMP DP  RH WIND       PRES   REMARKS
SAVANNAH ARPT  CLOUDY    70  64  81 SW9       29.56R
HUNTER AAF     CLOUDY    68  68 100 SW6       29.54R
FORT STEWART   CLOUDY    68  65  90 S5        29.54R
STATESBORO     CLOUDY    69  69 100 SW6       29.53F
SYLVANIA       CLOUDY    67  67 100 SW3       29.54S
CLAXTON        FAIR     N/A N/A N/A S5        29.54F

...CSRA...CENTRAL AND FAR SOUTHEAST GEORGIA...

CITY           SKY/WX    TMP DP  RH WIND       PRES   REMARKS
THOMSON        MOCLDY    68  67  96 W7        29.55R
AUGUSTA-BUSH   MOCLDY    66  64  93 S5        29.51R
AUGUSTA-DANIEL MOCLDY    66  62  87 S8        29.52R
SWAINSBORO     MOCLDY    66  66 100 S5        29.52F
VIDALIA        LGT RAIN  68  68 100 SW9       29.55S
EASTMAN        FAIR      68  65  92 SW6       29.57R
HAZLEHURST     CLOUDY    69  69 100 SW5       29.56R
ALMA           PTCLDY    69  67  93 SW10      29.56R
WAYCROSS       CLOUDY    72  72 100 SW10      29.58R
JESUP          FAIR      70  64  83 SW5       29.57S
BAXLEY         MOCLDY    70  70 100 SW5       29.56R
BRUNSWICK      CLOUDY    73  70  88 SW10G17   29.59R
SAINT SIMONS   CLOUDY    73  69  87 SW14G24   29.58R

$$

SCZ027-028-034-036>038-045-046-048>050-GAZ119-141-250300-
...LAKE AND SUPPLEMENTAL COASTAL OBSERVATIONS...

STATION/POSITION TIME  TEMP    WIND        PRES    WAVE   SWELL
                       AIR SEA DIR/SP/G            HT/PER HT/PER/DIR
                 (UTC) (F)     (DEG/KT/KT) (MB)    (FT/S) (FT/S/D)
WINYAH BAY       0045   74     190/ 12     1001.0
LAKE MURRAY      0120   71     180/ 10/ 14  998.6
ACE BASIN NERRS  0045   74     210/  3     1001.0
FORT PULASKI     0148   71     240/  9/ 16 1001.1F
SAPELO ISLAND    0100   74     220/ 13     1001.0

$$

ANZ835-935-AMZ111-154-330-350-352-354-370-450-454-472-250300-
...C-MAN AND BUOY OBSERVATIONS...

STATION/POSITION TIME  TEMP    WIND        PRES    WAVE   SWELL
                       AIR SEA DIR/SP/G            HT/PER HT/PER/DIR
                 (UTC) (F)     (DEG/KT/KT) (MB)    (FT/S) (FT/S/D)
BUOY 41004       0150   76 76  180/ 19/ 23 1002.0R   6/ 6   2/ 50/11
BUOY 41008       0150   76 78  210/ 23/ 29 1000.7F   5/ 6   2/120/ 8
FOLLY BEACH CMAN 0100   77     210/ 24/ 28 1002.0R
CAPERS NEARSHORE 0108   80 78  200/ 21/ 29 1000.8R
FRIPP NEARSHORE  0108   77 78  220/ 19/ 29 1000.1R


STATION/POSITION TIME  TEMP    WIND        PRES    WAVE   SWELL
                       AIR SEA DIR/SP/G            HT/PER HT/PER/DIR
                 (UTC) (F)     (DEG/KT/KT) (MB)    (FT/S) (FT/S/D)
5E ST. MARYS GA  0100      78                N/A     4/ 5
FRYING PAN BUOY  0150   75 77  170/ 19/ 23 1003.3F   6/ 8   3/140/11
BUOY 41025       0150   71 75  230/ 16/ 19 1006.0R   5/ 6   2/180/ 8
CAPE LOOKOUT NC  0100   73     190/ 15/ 19 1004.6F
BUOY 41002       0150   78 77  170/ 21/ 25 1009.0F   9/ 8   2/ 50/11
BUOY 41010       0150   75 79  200/ 27/ 33 1008.0S  10/ 8   2/220/12
ST AUGUSTINE FL  0200   73 77  220/  9/ 12 1005.2R


$$



USA.gov is the U.S. government's official web portal to all federal, state and local government web resources and services.